COSMOS 886 DEB *, 9798

Orbit data source: Space-Track

COSMOS 886 DEB *, 9798 is space debris in LEO originally from a launch on Mon, 27 Dec 1976 UTC launched from the Tyuratam Missile And Space Complex (TTMTR). Debris objects in space refer to the collection of defunct objects orbiting the Earth. Examples of debris include non-operational satellites, rocket bodies, and fragments generated from explosions, collisions, or faulty payload assembly.

Loading next visibility...
Identifier
9798, 1976-126Y
Orbit
LEO
Country
Flag of CISCIS
Related business
Manufacturer
Unknown
Mission
Spacecraft
Bus & Motor
Unknown
Mass
Unknown
Launch date (UTC)
1976-12-27 (49 years ago)
Launch vehicle
Unknown
Launch site
Tyuratam Missile And Space Complex (TTMTR)
Object type
Payload
Rocket body
Debris
Shape & HBR
Unknown shape, 0.2 m
Radar Cross Section
Small (<0.1 m²)

Expand to show TLE details & history
Last TLE update: 11 hours ago

TLE from 11 hours ago
0 COSMOS 886 DEB *
1  9798U 76126Y   26130.09431787 -.00000040  00000-0  48056-4 0  9998
2  9798  65.7556  61.7126 0132527 196.5620 186.9911 13.61268836443203
Epoch: 2026-05-10T02:15Z
TLE epoch observation values (Epoch: 2026-05-10T02:15:49.063Z)
Latitude
21.22895°
Longitude
169.87926°
Altitude
1,130.248 km
Speed
7.242 km/s
True Right ascension
04h 46m 56s
True Declination
21° 07' 08"
Sunlit
Object was in daylight at epoch
Visualization orbit readout
Latitude
Unknown
Longitude
Unknown
Altitude
Unknown
Speed
Unknown
Apparent Right ascension
Unknown
Apparent Declination
Unknown
Sunlit
N/A
Visualization observer readout
Local Sidereal Time
21:18:57
Azimuth
Unknown
Elevation
Unknown
Doppler factor
Unknown
Orbital elements
Apogee altitude
1,127.793 km
Perigee altitude
931.447 km
Semi-major axis
7,407.757 km
Eccentricity
0.01325
Inclination
65.7556°
RAAN
61.7126°
Arg. of periapsis
196.562°
True anomaly
186.80925°
Mean anomaly
186.9911°
Eccentric anomaly
186.89988°
Mean motion
3.40418 °/min
Orbital period
105.75 mins
BSTAR
0.000048056
Loading maneuver chart data...
Computing Atmospheric mass density...
Loading historical data...
Loading historical data...
Loading historical data...
Loading historical data...
Loading historical data...
Loading historical data...
Loading historical data...

Documentation

Showing up to 5 results
|